Volver al catálogo

GONETS-M 23

ActivoComunicacionesPO
NORAD 54150·PAYLOAD·🇷🇺 Russia

Lanzado Oct 22, 2022 desde Vostochny Cosmodrome

Loading…

Próximos Pases (próximas 24 horas)

TLE

ActualizadoSource: Space-Track

Época: Sep 14, 2026, 14:44 UTC

1 54150U 22139A   26257.61421252  .00000015  00000-0  36342-4 0  9995
2 54150  82.5037 292.7283 0021824  29.9085 330.3236 12.42893457176756

Sigue GONETS-M 23 en tiempo real con AllMySat

Download on the App Store